Preview of NWS' New Version of Forecast
This preview is not operational and should not be used for support decisions.
Latest weather observations around

St. Joseph, Rosecrans Memorial Airport (KSTJ)

Using English Units (Switch to International System of Units)
Date/ Time (CDT) Wind (mph) Vis. (mi) Weather Sky Cond. Temp (°F) Rel. Humidity Wind Chill (°F) Heat Index (°F) Pressure Precip. (in)
Air Dwpt 6 hour Altimeter (inHg) Sea level (inHg) 1 hr 3 hr 6 hr
Max Min
Sep 21 20:53 S 7 10 Cloudy OVC019 74 69     85%   75 29.9 29.88      
Sep 21 19:53 S 13 10 Cloudy FEW022 OVC028 74 69     85%   75 29.89 29.87      
Sep 21 19:25 S 10 10 Mostly Cloudy BKN023 74 69     85%   75 29.9        
Sep 21 18:53 S 13 10 Partly Cloudy SCT070 75 69     82%   76 29.91 29.89     0
Sep 21 17:53 S 11 10 Mostly Cloudy FEW024 BKN085 77 69     77%   78 29.91 29.88      
Sep 21 17:00   10 Cloudy SCT027 OVC060 77 69     77%   78 29.91        
Sep 21 16:53 S 15 10 Cloudy BKN029 OVC055 77 69     77%   78 29.91 29.88      
Sep 21 16:33 S 16 10 Cloudy FEW021 BKN034 OVC055 77 69     77%   78 29.91        
Sep 21 15:53 S 15 10 Cloudy BKN020 OVC026 77 70     79%   78 29.91 29.88 0 0  
Sep 21 14:53   10 Cloudy BKN020 OVC025 77 71     82%   78 29.9 29.88      
Sep 21 13:53   10 Cloudy OVC016 77 72     84%   78 29.9 29.88      
Sep 21 12:53   10 Cloudy SCT014 BKN020 OVC041 76 72     88%   77 29.91 29.88     0
Sep 21 12:49   10 Cloudy FEW014 BKN030 OVC038 75 72     89%   77 29.91        
Sep 21 11:53 S 14 10 Cloudy SCT016 BKN027 OVC035 75 72     90%   76 29.92 29.9 0    
Sep 21 11:11 S 10 10 Light Rain SCT017 BKN025 OVC034 74 71     91%   75 29.94   0    
Sep 21 10:58 S 11 4 Light Rain and Fog/Mist FEW016 BKN034 OVC095 73 71     94%   74 29.94   0    
Sep 21 10:53 S 14 1.5 Light Rain and Fog/Mist SCT014 BKN031 OVC095 73 71     94%   74 29.94 29.91 0    
Sep 21 10:48 S 13 1.5 Heavy Rain and Fog/Mist BKN016 BKN031 OVC095 73 72     94%   75 29.94   0    
Sep 21 10:45 S 13 2 Light Rain and Fog/Mist SCT016 BKN035 OVC090 73 71     94%   74 29.94   0    
Sep 21 10:32 S 15 4 Light Rain and Fog/Mist SCT016 BKN039 OVC095 73 70     90%   74 29.93   0    
Sep 21 10:26   2.5 Thunderstorms and Rain and Fog/Mist SCT016 BKN025 OVC040 73 70     90%   74 29.94   0    
Sep 21 10:16   4 Thunderstorms and Rain and Fog/Mist SCT018 SCT026 OVC041 73 70     90%   74 29.94   0    
Sep 21 10:03 S 15 8 Light Rain SCT020 BKN043 OVC090 74 71     91%   75 29.93   0    
Sep 21 09:53 S 11 5 Light Rain and Fog/Mist SCT017 BKN065 OVC090 74 71     91%   75 29.94 29.91 0 0  
Sep 21 09:12 S 13 10 Light Rain BKN018 BKN120 74 71     91%   75 29.94   0    
Sep 21 08:53 S 14 10 Mostly Cloudy FEW016 BKN120 74 70     87%   75 29.94 29.92      
Sep 21 08:17 S 13 10 Mostly Cloudy SCT023 BKN030 BKN110 74 70     87%   75 29.94        
Sep 21 07:53 S 11 10 Cloudy BKN023 OVC029 73 70     90%   74 29.94 29.92 0    
Sep 21 06:53 S 9 6 Light Rain and Fog/Mist OVC018 73 70     90%   74 29.94 29.91 0   0
Sep 21 06:27 S 10 9 Light Rain BKN018 BKN022 OVC075 73 70     90%   74 29.93   0    
Sep 21 06:19 S 13 4 Light Rain and Fog/Mist SCT020 BKN038 OVC090 73 69     87%   74 29.93   0    
Sep 21 05:53 S 13 4 Thunderstorms and Rain and Fog/Mist FEW022 BKN044 OVC110 73 69     87%   74 29.93 29.91 0    
Sep 21 05:39 S 14 5 Light Rain and Fog/Mist FEW018 BKN043 OVC110 73 69     87%   74 29.93   0    
Sep 21 04:53 S 10 10 Cloudy BKN022 OVC028 74 69     85%   75 29.93 29.91      
Sep 21 04:00 S 13 10 Cloudy BKN018 BKN024 OVC030 73 69     87%   74 29.94        
Sep 21 03:53 S 13 10 Cloudy BKN014 BKN024 OVC029 73 69     87%   74 29.94 29.91   0  
Sep 21 03:26 S 13 10 Cloudy BKN014 OVC018 73 69     87%   74 29.94        
Sep 21 03:09 S 10 10 Cloudy BKN016 OVC023 73 69     87%   74 29.94        
Sep 21 02:53 S 14 10 Cloudy BKN014 OVC024 73 69     87%   74 29.94 29.92 0    
Sep 21 01:53 S 10 10 Cloudy OVC011 72 69     91%   73 29.95 29.92      
Sep 21 00:53 S 14 10 Cloudy OVC013 72 69     91%   73 29.95 29.92 0   0
Sep 21 00:44 S 15 10 Cloudy OVC013 72 69     91%   73 29.95   0    
Sep 21 00:35 SSE 14 10 Cloudy OVC015 72 69     91%   73 29.95   0    
Sep 21 00:00 SSE 11 8 Cloudy BKN010 OVC014 72 69     91%   73 29.95        
Sep 20 23:53 SSE 13 5 Fog/Mist SCT010 OVC016 72 69     91%   73 29.96 29.93 0    
Sep 20 22:53 SSE 14 10 Cloudy OVC020 74 67     79%   75 29.96 29.94      
Sep 20 22:07 SSE 15 10 Cloudy BKN029 BKN038 OVC048 75 67     76%   76 29.96        
Sep 20 21:53 SSE 14 10 Cloudy SCT029 BKN038 OVC047 75 67     76%   76 29.96 29.93      
Sep 20 21:40 SSE 13 10 Cloudy SCT026 BKN033 OVC045 74 67     79%   75 29.96        
Sep 20 21:14 S 14 10 Cloudy BKN026 OVC035 75 67     76%   76 29.95        
Sep 20 20:53 SSE 13 10 Cloudy OVC031 76 67     74%   77 29.95 29.92      
Sep 20 20:32 S 15 10 Cloudy OVC029 75 67     76%   76 29.95        
Sep 20 19:53 S 13 10 Mostly Clear FEW028 75 66     74%   76 29.95 29.92      
Sep 20 18:53 S 15 10 Partly Cloudy SCT070 77 66     69%   78 29.94 29.92 0   0
Sep 20 17:53 S 13 10 Light Rain FEW037 BKN060 OVC085 78 67     69%   79 29.95 29.93 0    
Sep 20 16:53 S 14 10 Clear   82 67     60%   85 29.94 29.91      
Sep 20 15:53   10 Mostly Clear FEW045 FEW060 86 67     53%   89 29.95 29.93      
Sep 20 14:53 S 14 10 Mostly Cloudy SCT047 SCT055 BKN070 85 67     55%   88 29.96 29.94      
Sep 20 13:53   10 Clear CLR 87 65     48%   89 29.97 29.94      
Sep 20 12:53 SSE 15 10 Clear CLR 84 66     55%   86 30 29.98      
Sep 20 11:53 SSE 15 10 Clear CLR 84 67     57%   87 30.02 29.99      
Sep 20 10:53 SSE 9 10 Clear CLR 83 68     61%   86 30.03 30      
Sep 20 09:53 SSE 10 10 Clear CLR 79 68     69%   80 30.03 30.01      
Sep 20 08:53 SSE 6 8 Clear CLR 74 68     82%   75 30.04 30.01      
Sep 20 07:53 Calm 5 Fog/Mist CLR 72 68     87%   73 30.02 29.99      
Sep 20 06:53 SSE 5 8 Clear CLR 70 66     87%     30 29.97      
Sep 20 05:53 SE 5 8 Clear CLR 70 66     87%     29.99 29.97      
Sep 20 04:53 Calm 7 Clear CLR 68 65     90%     30 29.97      
Sep 20 03:53 SSE 5 9 Clear CLR 71 66     84%   72 30 29.98      
Sep 20 02:53 Calm 9 Clear CLR 73 66     79%   74 30.01 29.98      
Sep 20 01:53 S 3 9 Clear CLR 73 67     81%   74 30.01 29.98      
Sep 20 00:53 S 3 7 Clear CLR 71 69     93%   72 30 29.98      
Sep 19 23:53 Calm 7 Clear CLR 72 69     91%   73 29.99 29.97      
Sep 19 22:53 Calm 9 Clear CLR 74 70     87%   75 29.98 29.96      
Sep 19 21:53 SE 5 10 Clear CLR 77 71     82%   78 29.97 29.95      
Sep 19 20:53 ESE 5 10 Clear CLR 79 71     77%   82 29.96 29.94      
Sep 19 19:53   10 Clear   81 70     69%   84 29.95 29.92      
Sep 19 18:53 SE 8 10 Clear CLR 83 70     65%   87 29.94 29.91     0
Sep 19 17:53 SE 9 10 Clear CLR 86 69     57%   90 29.94 29.91      
Sep 19 16:53 SE 9 10 Clear CLR 89 72     57%   96 29.95 29.92      
Sep 19 15:53 SE 7 10 Clear CLR 87 71     59%   93 29.96 29.93   0  
Sep 19 14:53 E 13 10 Clear CLR 88 71     57%   94 29.98 29.95      
Sep 19 13:53 E 11 10 Clear CLR 87 70     57%   92 30 29.97 0    
Sep 19 12:53 E 9 10 Light Rain SCT033 SCT055 BKN075 85 70     61%   89 30.02 29.99 0   0
Sep 19 11:53 ENE 8 10 Clear CLR 85 71     63%   90 30.04 30.01      
Sep 19 10:53 ENE 8 8 Partly Cloudy FEW070 SCT090 83 71     67%   88 30.04 30.01      
Sep 19 09:53 N 10 7 Partly Cloudy FEW065 SCT080 77 70     79%   78 30.04 30.01      
Sep 19 08:53 Calm 7 Mostly Clear FEW070 75 71     88%   76 30.01 29.98      
Sep 19 07:53 Calm 4 Fog/Mist CLR 71 69     93%   72 30 29.97      
Sep 19 06:53 Calm 4 Fog/Mist CLR 68 66     93%     29.98 29.96      
Sep 19 05:53 Calm 8 Clear CLR 68 67     96%     29.96 29.94      
Sep 19 04:53 Calm 9 Clear CLR 68 66     93%     29.96 29.93      
Sep 19 03:53 Calm 8 Clear CLR 69 66     90%     29.96 29.93      
Sep 19 02:53 Calm 9 Clear CLR 69 66     90%     29.96 29.93      
Sep 19 01:53 Calm 10 Clear CLR 71 67     87%   72 29.97 29.94      
Sep 19 00:53 SSW 6 10 Clear CLR 73 68     84%   74 29.96 29.93      
Sep 18 23:53 SSW 3 10 Clear CLR 73 69     87%   74 29.97 29.94      
Sep 18 22:53 S 3 10 Clear CLR 76 70     82%   77 29.97 29.94      
Sep 18 21:53 SSW 3 10 Clear CLR 77 71     82%   78 29.97 29.95      
Sep 18 20:53 S 6 10 Clear CLR 79 70     74%   82 29.97 29.94      
Sep 18 19:53 SSE 6 10 Clear CLR 80 70     71%   83 29.95 29.92      
Sep 18 18:53 S 6 10 Clear CLR 84 70     63%   88 29.93 29.9      
May 15 04:37 NNW 6 9 Clear   68 66     93%     29.91        
May 14 21:53 SSW 11 10 Cloudy OVC037 74 70     87%   75   29.82 0 0  
May 14 20:12 NNE 3 9 Mostly Clear FEW070 78 73     85%   80 29.79   0    
May 14 19:53 NNW 6 5 Clear   80 72     76%   84 29.79 29.77 0    
May 14 08:53 W 6 10 Partly Cloudy SCT065 78 67     69%   79 29.92 29.9      
May 13 06:53 Calm 8 Clear CLR 62 61     96%     29.95 29.93      
May 12 13:53 SE 13 10 Cloudy FEW032 BKN049 OVC055 80 68     67%   83 29.86 29.83      
May 12 11:53 ESE 14 10 Clear CLR 78 67     69%   79 29.88 29.85      
May 12 02:53 S 7 10 Clear CLR 69 64     84%     29.8 29.77      
Jun 11 07:53 S 17 10 Clear CLR 76 67     74%   77 29.8 29.77      
Jun 10 21:53 S 16 10 Clear   81 70     69%   84 29.74 29.71      
Jun 08 22:53 S 5 10 Clear CLR 68 57     68%     29.9 29.88      
Jun 07 23:53 Calm 10 Clear CLR 64 54     70%     30.06 30.04      
Jun 06 09:53 ESE 11 10 Clear CLR 74 49     41%   73 30.05 30.02      
Jun 06 05:53 Calm 10 Clear CLR 65 56     73%     30 29.98